Location: Holkham
(52.9500°N, 0.8167°E)
Time: 23:54:07
(UTC+00:00)

Meteor 2-9 Rocket - Pass Details

Date: 19 May 2025
Orbit: 791 x 893 km, 81.3° (Epoch: 18 June)

Event Time Altitude Azimuth Distance (km) Brightness Sun altitude
Rises 22:12:03 0° 346° (NNW) 3,396 9.1 -13.8°
Reaches altitude 10° 22:14:26 10° 346° (NNW) 2,472 8.0 -14.0°
Maximum altitude 22:20:04 88° 260° (W) 867 4.2 -14.3°
Enters shadow 22:24:03 21° 170° (S) 1,863 5.4 -14.5°
